Regional Weather Roundup
Issued by NWS Midland/Odessa, TX

Skip options and go directly to product.
Home | Oldest Version | Previous Version | Current Version | All | Text Only | Save Text | Print | Product List | Glossary On

Skip product version selection by date and time.   
530
ASUS44 KMAF 271610
RWRMAF
MIDLAND AREA WEATHER ROUNDUP
NATIONAL WEATHER SERVICE MIDLAND TX
1100 AM CDT WED AUG 27 2014

...IN SOUTHWEST TEXAS AND SOUTHEAST NEW MEXICO...

CITY           SKY/WX    TMP DP  RH WIND       PRES   REMARKS
ALPINE         SUNNY     82  53  37 CALM      30.28S
ANDREWS        FAIR      85  59  41 SW10      30.16S
ARTESIA        NOT AVBL
BIG SPRING     SUNNY     86  63  45 S9        30.15F
CARLSBAD       PTSUNNY   77  62  59 NW14      30.17S
DRYDEN           N/A     89  65  44 SE6       30.09R
FORT STOCKTON  SUNNY     83  61  47 VRB6      30.15R
GUAD PASS      PTSUNNY   74  56  53 CALM      30.32R
HOBBS          MOSUNNY   81  57  44 CALM      30.20R
MARFA          SUNNY     77  55  47 S6        30.28S
MIDLAND AIRPK  SUNNY     87  60  40 S8        30.14S
MIDLAND INTL   SUNNY     85  62  46 S8        30.13S
ODESSA         SUNNY     83  62  49 SW14      30.15S
PECOS          SUNNY     84  61  45 W8        30.12S
PRESIDIO       FAIR      87  54  32 SE5       30.12R
SEMINOLE       PTSUNNY   85  55  35 SW12      30.18R
SNYDER         SUNNY     85  65  52 SW8G17    30.13S
WINK           MOSUNNY   86  57  37 SE7       30.12R
$$
...OTHER STATIONS IN TEXAS...

CITY           SKY/WX    TMP DP  RH WIND       PRES   REMARKS
ABILENE        PTSUNNY   88  67  49 S7        30.11R
AMARILLO       PTSUNNY   78  64  61 S16       30.18S
AUSTIN         MOSUNNY   88  71  57 VRB7      30.04S
BROWNSVILLE    PTSUNNY   89  75  63 N8        29.95S
CORPUS CHRISTI MOSUNNY   90  73  57 NE14      29.97S
DALLAS FTW     MOSUNNY   88  70  55 E6        30.07S
DEL RIO        SUNNY     88  69  53 SE9       30.03S
EL PASO        MOSUNNY   74  64  71 N9        30.20S
HOUSTON INT    MOSUNNY   88  72  58 NE10G18   30.01S
LUBBOCK        MOSUNNY   83  63  50 S9        30.16S
SAN ANGELO     SUNNY     86  67  52 S9        30.10S
SAN ANTONIO    PTSUNNY   86  70  58 E8        30.05R
WACO           MOSUNNY   89  69  51 VRB6      30.06S
WICHITA FALLS  NOT AVBL
$$
...OTHER LOCATIONS IN NEW MEXICO...

CITY           SKY/WX    TMP DP  RH WIND       PRES   REMARKS
ALAMAGORDO     PTSUNNY   66  64  94 CALM      30.24R
ALBUQUERQUE    MOSUNNY   67  55  65 CALM      30.32S
CANNON AFB     PTSUNNY   74  62  66 NW3       30.22F
CLOVIS           N/A     75  59  57 W6        30.24S
HOLLOMAN AFB   PTSUNNY   69  65  88 N7        30.22R
ROSWELL        CLOUDY    74  61  63 NE3       30.20R
RUIDOSO        PTSUNNY   63  59  88 CALM      30.40R
SANTA FE       MOSUNNY   63  56  78 SW6       30.35S
TRUTH OR CONSE MOSUNNY   69  60  73 NE8       30.28R
TUCUMCARI        N/A     73  64  73 S7        30.19R
$$

USA.gov is the U.S. government's official web portal to all federal, state and local government web resources and services.